Terminal Aerodrome Forecast
Issued by NWS Portland, OR

Home | Current Version | Previous Version | Text Only | Print | Product List | Glossary On
Versions: 1 2 3 4 5 6 7 8 9 10 11 12 13 14 15 16 17 18 19 20 21 22 23 24 25 26 27 28 29 30 31 32 33
816
FTUS46 KPQR 110815 AAA
TAFEUG
TAF AMD
KEUG 110815Z 1108/1206 00000KT P6SM FEW030 SCT080 OVC120
     FM111800 13005KT P6SM -RA OVC050
     FM120000 18004KT P6SM OVC100=

USA.gov is the U.S. government's official web portal to all federal, state and local government web resources and services.